Curtis Field Brady US
ICAO: KBBD
IATA: BBD
Category: Medium
Scheduled Services: No

Elevation: 1827 ft
TransAlt. 18000 ft.

Airport Communications:
AWOS 3:118.375
HOUSTON CNTR:132.35
CTAF/UNICOM:122.8

KBBD Zoom In..

If you have problems with the map follow the link
https://www.worldairports.se/pages/airport.php?
ICAO=KBBD

Runways:

(A) RW 08 length 3520 ft width 110 ft
---- / hdg 86

(B) RW 17 length 4605 ft width 75 ft
---- / hdg 173

(C) RW 26 length 3520 ft width 110 ft
---- / hdg 266

(D) RW 35 length 4605 ft width 75 ft
---- / hdg 353

Location; KBBD
Day. 08 / Time. 18.55 Zulu
* Altimeter: 29.91
* Temperature: 24° c. 75.2°f.
* Wind from: 230° Speed 14 kn.
Dewpoint: 09° c.
Visibility: 10 Statute Miles.
Clouds: Clear (automated report).

KBBD 081855Z AUTO 23014KT 10SM CLR 24/09 A2991 RMK AO2


Wind From 230°
Speed 14 kn.

 
 
jpsmedia worldairports.se 2019   terms of use